This demonstration page uses our WeatherBlox Daily Observations layout. Learn more.

Left ArrowRight Arrow

39.01783, -85.05884

Hourly Observations for February 27, 2017

Temp ( °F °C ) Dew Point ( °F °C ) Humidity (%) Winds ( mph kmh ) Pressure ( in mb ) Visibility ( mi km ) Precip ( " mm )
12:52 am 00:52 Cloudy 40 4.4 22 -5.6 49 49 S 6 9 30.18 1022 10 16 0.00 0.00
1:52 am 01:52 Cloudy 40 4.4 22 -5.6 49 49 SE 3 6 30.18 1022 10 16 0.00 0.00
2:52 am 02:52 Cloudy 43 6.1 21 -6.1 42 42 SSW 6 9 30.19 1022 10 16 0.00 0.00
3:52 am 03:52 Cloudy 44 6.7 22 -5.6 41 41 SSW 7 11 30.19 1023 10 16 0.00 0.00
4:52 am 04:52 Cloudy 43 6.1 22 -5.6 43 43 S 8 13 30.22 1023 10 16 0.00 0.00
5:52 am 05:52 Cloudy with Light Rain 44 6.7 30 -1.1 58 58 SSW 7 11 30.22 1023 10 16 0.00 0.03
6:52 am 06:52 Cloudy with Light Rain 42 5.6 34 1.1 73 73 S 5 7 30.24 1024 10 16 0.00 0.03
7:52 am 07:52 Cloudy with Light Rain 41 5 37 2.8 86 86 S 8 13 30.25 1024 10 16 0.00 0.03
8:52 am 08:52 Cloudy with Light Rain 42 5.6 40 4.4 92 92 S 10 17 30.27 1025 8 13 0.01 0.25
9:52 am 09:52 Cloudy 42 5.6 40 4.4 92 92 SE 6 9 30.25 1024 10 16 0.00 0.03
10:13 am 10:13 Cloudy 42 5.6 40 4.4 92 92 SSE 8 13 30.27 1025 10 16 0.00 0.00
10:48 am 10:48 Cloudy 43 6 39 4 87 87 SSE 9 15 30.27 1025 10 16 0.00 0.00
10:52 am 10:52 Cloudy 43 6.1 40 4.4 89 89 SSE 10 17 30.26 1025 10 16 0.00 0.00
11:24 am 11:24 Cloudy 43 6 41 5 93 93 SSE 10 17 30.27 1025 10 16 0.00 0.00
11:52 am 11:52 Cloudy with Light Rain 43 6.1 41 5 93 93 SSE 12 19 30.26 1025 6 10 0.01 0.25
12:52 pm 12:52 Cloudy with Light Rain 44 6.7 42 5.6 93 93 SSE 9 15 30.24 1024 4 6 0.03 0.76
1:52 pm 13:52 Cloudy with Light Rain 45 7.2 44 6.7 97 97 S 3 6 30.22 1023 7 11 0.01 0.25
2:48 pm 14:48 Cloudy 46 8 45 7 93 93 S 12 19 30.24 1024 10 16 0.00 0.03
2:52 pm 14:52 Cloudy 47 8.3 45 7.2 93 93 S 9 15 30.21 1023 10 16 0.00 0.03
3:06 pm 15:06 Cloudy 48 9 46 8 94 94 SSE 6 9 30.24 1024 10 16 0.00 0.00
3:52 pm 15:52 Cloudy 49 9.4 45 7.2 86 86 S 8 13 30.19 1022 10 16 0.00 0.00
4:52 pm 16:52 Mostly Cloudy 49 9.4 44 6.7 83 83 SSE 8 13 30.19 1022 10 16 0.00 0.00
5:52 pm 17:52 Mostly Cloudy 48 8.9 41 5 77 77 SE 9 15 30.19 1022 10 16 0.00 0.00
6:52 pm 18:52 Mostly Cloudy 46 7.8 41 5 83 83 ESE 7 11 30.19 1022 10 16 0.00 0.00
7:52 pm 19:52 Partly Cloudy 45 7.2 41 5 86 86 ESE 5 7 30.19 1022 10 16 0.00 0.00
8:52 pm 20:52 Mostly Clear 44 6.7 40 4.4 85 85 E 3 6 30.20 1023 10 16 0.00 0.00
9:52 pm 21:52 Clear 43 6.1 40 4.4 89 89 ESE 8 13 30.19 1022 10 16 0.00 0.00
10:52 pm 22:52 Clear 42 5.6 40 4.4 92 92 S 5 7 30.19 1023 10 16 0.00 0.00
11:52 pm 23:52 Mostly Cloudy 43 6.1 39 3.9 86 86 SSE 6 9 30.19 1022 10 16 0.00 0.00

Powered by AerisWeather